Temperature
0 0 -0 -1 -1 -0 1 2 4 5 6 5 4 4 4 5 5 5 5 5 4 4 4 4 4 5 5 5 5 6 6 6 6 6 7 7 7 7 7 6 6 6 6
-1 -1 -1 -2 -2 -2 -1 1 2 3 4 4 3 3 3 3 3 4 4 4 3 2 2 2 3 3 4 4 4 5 5 5 5 6 6 6 7 7 6 6 6 5 5
-2 -2 -3 -3 -4 -3 -2 -1 1 2 2 2 1 1 2 2 2 3 3 2 1 1 1 1 2 2 2 3 3 4 4 4 5 5 5 6 6 6 5 5 5 5 5
-3 -4 -4 -5 -5 -4 -3 -2 -1 -0 0 0 -0 -0 -0 0 0 1 1 0 0 0 0 0 1 1 1 2 2 2 3 3 4 4 4 5 5 5 4 4 4 4 4
-5 -5 -5 -5 -5 -5 -4 -3 -2 -1 -1 -1 -1 -1 -1 -1 -1 -1 -1 -1 -1 -1 -1 -1 -0 -0 -0 -0 0 1 1 2 2 3 3 3 3 3 3 3 3 3 3
-6 -6 -6 -5 -5 -5 -4 -3 -3 -2 -2 -2 -2 -2 -2 -3 -3 -3 -3 -3 -3 -2 -2 -2 -2 -2 -2 -2 -1 -1 -1 -0 0 1 1 1 2 2 2 2 2 2 2
-7 -7 -6 -5 -5 -5 -5 -4 -4 -4 -4 -3 -3 -3 -4 -4 -4 -4 -4 -4 -4 -4 -4 -4 -4 -5 -4 -3 -3 -2 -2 -2 -1 -1 -1 -0 -0 0 0 0 1 0 1
-8 -7 -7 -6 -6 -6 -6 -6 -5 -5 -5 -5 -5 -5 -5 -6 -6 -5 -5 -5 -5 -5 -5 -5 -5 -6 -5 -4 -4 -4 -4 -4 -3 -2 -2 -2 -2 -2 -2 -1 -1 -1 -1
-8 -8 -8 -8 -7 -7 -7 -7 -7 -6 -6 -6 -6 -7 -7 -7 -7 -7 -6 -7 -7 -7 -7 -7 -7 -7 -7 -6 -5 -5 -5 -6 -5 -5 -4 -3 -3 -4 -4 -3 -3 -3 -2
-9 -9 -9 -9 -8 -8 -8 -8 -8 -8 -7 -7 -8 -8 -8 -8 -8 -8 -8 -7 -8 -8 -8 -8 -9 -8 -8 -7 -7 -6 -6 -6 -6 -6 -5 -5 -6 -6 -6 -5 -5 -4 -4
-10 -9 -10 -9 -9 -9 -9 -9 -9 -9 -8 -8 -8 -8 -9 -9 -9 -9 -9 -8 -8 -9 -9 -9 -9 -9 -9 -8 -8 -7 -7 -7 -7 -7 -7 -7 -7 -6 -6 -6 -6 -6 -6
-10 -10 -10 -10 -10 -10 -10 -10 -10 -9 -9 -9 -9 -9 -9 -9 -9 -9 -10 -10 -9 -9 -9 -9 -9 -9 -9 -9 -8 -8 -8 -7 -7 -7 -8 -8 -8 -7 -7 -7 -7 -6 -6
-11 -11 -11 -11 -11 -11 -10 -10 -10 -10 -10 -10 -10 -10 -10 -10 -10 -10 -10 -10 -10 -10 -10 -10 -10 -10 -9 -9 -9 -10 -9 -8 -8 -8 -8 -8 -8 -8 -8 -8 -7 -7 -7
-12 -12 -12 -12 -12 -12 -11 -11 -11 -11 -11 -11 -11 -11 -11 -11 -11 -10 -10 -10 -10 -10 -10 -11 -11 -11 -11 -11 -11 -10 -10 -10 -10 -10 -9 -9 -9 -9 -9 -9 -8 -8 -7
-13 -13 -13 -13 -13 -13 -13 -12 -12 -12 -12 -12 -12 -12 -12 -12 -12 -11 -11 -11 -10 -10 -11 -11 -11 -11 -11 -11 -11 -11 -11 -11 -11 -11 -10 -10 -10 -10 -10 -10 -10 -9 -9
-14 -14 -14 -14 -14 -14 -14 -14 -13 -13 -12 -12 -13 -13 -13 -13 -12 -12 -12 -11 -11 -12 -12 -12 -12 -12 -12 -12 -12 -12 -12 -12 -12 -12 -11 -11 -11 -11 -11 -10 -11 -10 -10
-15 -15 -14 -15 -15 -15 -15 -15 -14 -14 -14 -14 -14 -13 -13 -13 -13 -13 -12 -12 -12 -12 -13 -13 -13 -13 -13 -13 -14 -14 -14 -14 -14 -13 -13 -13 -13 -12 -12 -12 -12 -12 -12
-15 -15 -15 -15 -15 -15 -15 -15 -15 -15 -15 -15 -15 -14 -14 -14 -14 -13 -13 -13 -13 -13 -14 -14 -14 -14 -14 -14 -14 -15 -15 -15 -15 -15 -14 -14 -14 -14 -13 -13 -13 -13 -13
-15 -15 -15 -15 -15 -15 -15 -15 -15 -15 -15 -15 -15 -15 -15 -15 -14 -14 -14 -14 -14 -14 -14 -14 -14 -14 -15 -15 -15 -15 -15 -15 -16 -16 -15 -15 -15 -15 -14 -14 -14 -14 -14
-15 -15 -15 -15 -15 -15 -15 -15 -15 -15 -15 -15 -15 -15 -15 -15 -15 -15 -15 -15 -15 -15 -15 -15 -15 -15 -15 -15 -15 -16 -16 -16 -16 -16 -16 -16 -16 -16 -15 -15 -15 -14 -14
-15 -15 -15 -15 -16 -15 -15 -15 -15 -15 -15 -15 -15 -15 -15 -15 -15 -16 -16 -16 -16 -16 -16 -16 -16 -16 -16 -16 -16 -16 -16 -16 -16 -16 -16 -16 -16 -16 -16 -16 -15 -15 -14
-15 -15 -15 -16 -16 -15 -15 -15 -15 -15 -15 -15 -15 -15 -15 -15 -15 -16 -16 -16 -16 -16 -16 -16 -16 -16 -16 -16 -16 -16 -16 -16 -16 -16 -16 -16 -16 -16 -16 -15 -15 -14 -14
-15 -15 -15 -15 -15 -15 -15 -15 -15 -15 -15 -15 -15 -15 -15 -15 -15 -15 -15 -16 -16 -16 -16 -16 -16 -16 -16 -16 -16 -17 -17 -16 -16 -16 -16 -16 -16 -15 -15 -14 -14 -14 -13
-15 -15 -15 -15 -15 -15 -15 -15 -15 -15 -15 -15 -15 -15 -15 -15 -15 -15 -15 -15 -15 -16 -16 -16 -16 -16 -16 -16 -16 -16 -16 -16 -16 -16 -16 -15 -15 -14 -14 -13 -13 -14 -14
-14 -15 -15 -15 -15 -15 -15 -15 -15 -15 -15 -15 -15 -15 -15 -15 -15 -15 -15 -15 -15 -15 -16 -16 -16 -16 -16 -16 -16 -16 -16 -16 -16 -15 -15 -14 -14 -14 -14 -14 -14 -14 -14
-15 -15 -16 -16 -16 -16 -16 -16 -15 -15 -15 -15 -15 -15 -15 -15 -15 -15 -15 -15 -15 -15 -15 -15 -16 -16 -16 -16 -16 -16 -16 -15 -15 -14 -14 -14 -14 -14 -14 -14 -14 -14 -13
Wind_Speed
13 13 15 16 18 19 20 19 7 5 9 9 7 3 2 3 4 3 3 3 4 5 5 4 5 4 3 3 3 4 4 4 5 5 4 3 4 5 4 4 3 1 3
15 15 15 17 18 18 19 17 7 3 7 8 8 6 5 4 4 4 5 6 5 4 5 5 5 4 4 3 2 2 3 4 5 6 4 3 3 4 5 4 2 2 3
16 16 16 17 18 18 18 14 7 4 5 5 6 7 7 6 6 7 9 8 8 9 9 8 8 8 8 7 7 5 3 2 1 2 3 2 1 2 4 4 5 5 6
16 16 17 17 17 16 15 13 9 4 2 3 5 7 8 8 8 9 9 8 9 9 9 8 8 8 7 7 7 7 6 5 4 3 1 1 2 4 5 4 4 4 4
15 15 16 17 16 15 13 12 11 7 4 5 7 8 9 9 9 9 8 8 8 8 7 7 8 10 12 9 7 7 7 6 5 4 3 3 3 4 3 2 2 3 3
15 15 16 16 15 15 14 12 10 10 11 11 9 9 9 9 15 15 10 7 7 7 6 5 4 7 9 9 9 8 8 6 5 3 3 3 4 4 3 3 2 2 2
14 15 16 17 14 14 15 15 13 12 13 13 12 11 11 12 16 15 13 7 7 7 8 8 7 6 8 6 6 3 4 6 6 3 4 5 5 6 5 4 4 2 2
13 14 15 17 15 13 14 14 11 10 9 9 9 8 8 11 14 13 10 7 6 7 8 8 8 7 7 8 7 4 2 4 5 5 4 4 4 3 3 3 4 4 5
11 11 11 13 14 13 13 12 9 7 6 6 6 7 6 9 13 12 10 4 6 6 7 7 7 7 10 11 9 7 7 8 7 9 8 6 5 4 2 3 4 3 3
10 9 9 10 10 10 10 8 7 6 5 4 4 5 7 7 11 12 11 7 7 5 4 7 10 9 10 10 8 8 9 8 8 8 8 8 7 8 13 8 6 4 3
11 10 10 10 10 10 10 8 8 7 6 5 4 4 5 6 9 11 12 7 6 5 5 6 7 10 9 9 9 7 7 6 5 6 5 5 6 7 8 7 6 4 2
12 10 10 10 10 10 9 9 8 9 8 7 6 5 5 5 6 7 8 6 5 5 5 5 5 8 8 7 6 6 7 7 5 5 4 5 6 5 5 4 6 5 4
14 11 10 11 10 10 8 8 8 8 8 9 8 7 7 6 7 10 8 8 5 1 2 3 4 6 6 5 6 7 7 5 4 4 4 4 4 4 4 4 5 5 6
14 13 11 9 9 10 10 7 6 6 6 8 8 8 7 7 7 7 6 7 9 4 1 1 1 3 3 4 5 5 4 4 3 3 3 3 4 4 3 3 4 4 4
12 12 12 11 8 7 9 9 8 4 6 6 5 6 7 6 10 15 11 5 2 2 2 1 1 1 2 3 3 4 4 4 4 4 4 4 4 4 3 4 4 4 4
13 12 10 10 9 8 7 9 14 15 17 15 11 9 8 11 15 15 14 8 4 4 3 2 1 1 1 2 2 2 2 3 3 3 3 3 4 4 4 4 4 4 5
14 13 10 11 10 10 9 9 9 11 16 17 17 16 13 14 14 14 13 6 4 3 2 2 2 2 1 1 1 1 2 2 1 2 3 4 4 5 6 6 5 5 5
11 13 12 9 8 8 8 8 8 9 9 8 12 16 16 16 16 16 15 8 4 3 2 2 2 2 1 1 1 1 1 2 2 2 3 4 4 5 6 6 6 6 7
11 8 7 6 7 7 7 7 6 7 8 8 7 9 15 16 16 16 15 6 4 4 3 3 2 2 2 2 2 2 2 3 3 3 4 5 5 5 6 7 7 12 10
8 17 15 8 6 7 8 7 6 6 6 7 7 6 7 8 6 7 7 6 5 5 4 4 3 3 2 2 3 3 4 4 4 4 5 5 5 5 6 8 8 8 8
7 10 18 11 7 7 7 6 6 6 6 6 5 9 14 6 5 5 5 5 4 5 5 5 4 4 3 3 3 4 5 5 5 5 5 5 5 6 6 7 8 9 10
7 7 7 7 7 7 8 7 6 6 7 7 5 8 14 5 4 4 4 5 4 4 5 5 4 4 4 3 4 4 5 5 5 6 6 6 6 6 7 7 9 9 10
7 8 9 9 8 13 11 7 7 7 7 7 6 6 7 5 4 5 5 5 5 5 4 4 5 5 4 5 6 5 5 6 6 7 7 7 8 8 9 10 12 12 13
8 9 10 10 10 10 10 10 9 10 9 8 8 7 7 6 6 6 6 5 5 5 4 5 5 6 7 7 8 10 11 12 13 11 11 12 13 13 12 12 13 15 15
10 11 12 12 12 12 12 12 11 11 11 12 10 9 7 7 6 6 6 5 6 6 6 6 6 6 8 9 10 12 17 21 22 20 15 13 15 16 15 15 15 15 15
13 15 15 14 14 15 15 15 14 14 13 14 12 10 8 7 6 6 6 5 5 5 6 5 7 9 10 11 13 17 21 23 25 25 15 8 8 9 10 11 13 13 12
Wind_Direction
352 342 329 322 319 317 315 307 270 158 136 132 129 140 117 79 58 49 28 12 343 313 303 293 288 289 281 249 220 211 213 197 206 233 240 238 174 154 145 159 153 156 334
346 336 331 327 324 322 318 313 310 112 119 127 134 145 133 100 76 71 64 53 41 26 18 25 11 5 1 345 316 243 227 216 202 221 240 238 208 173 138 119 94 36 18
341 338 338 336 330 324 322 320 336 32 82 105 128 136 125 112 97 82 80 72 65 59 52 48 36 39 35 26 29 22 6 1 358 214 238 240 195 109 103 85 67 43 27
342 343 342 339 335 330 329 334 341 3 73 110 118 115 111 105 95 85 81 79 74 66 57 49 43 43 44 42 40 23 17 27 27 31 12 15 66 56 80 81 63 44 27
345 347 346 343 339 337 336 338 345 0 45 84 98 94 92 88 87 89 84 83 81 73 58 47 44 43 48 54 56 40 32 35 34 33 35 39 53 51 67 65 65 31 8
347 348 349 347 347 350 355 358 8 27 39 48 63 79 85 87 85 81 80 76 80 77 65 47 60 53 41 42 48 50 50 52 47 37 28 34 45 44 48 55 50 37 329
349 350 352 351 355 7 11 18 29 37 40 39 41 49 57 68 72 67 64 62 66 60 50 31 23 42 45 17 8 36 78 79 73 69 39 35 42 26 18 29 31 18 291
349 352 355 356 4 13 15 16 25 33 38 39 37 39 45 50 58 56 53 52 71 73 68 45 24 34 28 14 350 349 71 83 77 58 59 42 26 12 360 353 334 319 298
345 347 350 355 1 7 11 11 13 26 37 40 38 26 31 38 42 46 42 36 63 72 85 74 48 28 26 22 10 15 42 36 47 38 21 358 344 338 352 5 354 353 333
338 340 344 351 352 357 1 3 360 6 21 38 36 25 37 29 33 41 39 44 48 46 73 89 59 39 25 24 28 39 40 18 6 8 3 0 20 38 47 47 41 36 13
341 346 349 353 351 354 353 354 354 356 359 5 1 10 49 43 32 38 47 48 25 16 47 72 50 31 19 23 44 39 19 12 357 357 355 16 40 45 41 35 29 33 14
344 351 352 353 353 357 350 353 356 358 357 357 1 14 34 39 42 29 28 38 33 22 56 59 27 17 11 21 35 16 22 36 27 17 23 33 35 29 16 1 356 358 342
346 347 351 352 350 348 348 358 358 4 6 2 6 15 14 12 7 12 9 2 351 10 104 74 27 21 16 6 2 26 49 48 32 25 31 31 20 1 352 351 354 349 329
346 345 345 350 352 352 350 356 0 2 5 0 1 2 359 358 358 359 351 339 336 334 189 160 29 23 22 7 23 35 37 25 28 21 27 18 356 344 349 352 339 329 322
344 344 344 346 345 351 351 346 348 348 346 352 353 351 347 341 330 333 340 337 359 51 47 357 53 86 49 30 31 32 28 20 25 28 22 357 339 337 337 336 327 326 320
345 342 342 345 346 350 348 348 353 355 357 0 355 349 341 334 332 338 339 352 16 5 3 336 346 68 61 44 28 16 4 356 24 20 350 330 329 328 319 315 318 321 312
343 341 347 348 348 350 350 348 347 352 356 356 353 349 347 345 342 336 333 337 321 332 354 348 2 17 24 11 336 319 318 344 1 328 317 316 313 310 309 307 304 301 298
341 344 350 343 342 342 342 341 342 345 345 343 345 344 345 346 343 340 341 351 344 349 327 286 260 258 247 241 276 308 316 320 310 300 296 292 292 295 299 297 294 290 295
339 335 337 333 333 334 331 329 332 336 336 332 327 335 342 343 344 343 350 356 340 332 325 319 309 293 269 245 246 251 255 261 265 269 271 272 271 272 281 286 288 291 294
329 337 342 334 324 322 318 319 321 317 318 318 321 323 326 337 341 338 339 336 340 335 326 316 303 287 277 258 251 251 254 256 262 261 261 260 259 260 269 277 281 283 283
312 322 333 330 309 302 299 296 296 298 299 303 307 322 335 347 329 321 327 335 342 340 335 328 322 311 297 278 263 259 256 254 255 258 260 257 256 259 260 264 269 275 280
304 305 307 304 302 299 294 288 287 286 286 290 291 312 327 328 304 305 309 310 301 294 291 291 287 280 270 260 259 262 259 257 257 257 254 252 251 256 260 265 268 269 271
301 303 304 300 296 299 302 288 283 280 279 279 282 292 300 288 280 283 282 279 276 276 272 269 271 269 259 258 257 254 258 261 260 255 255 260 261 262 261 263 264 265 267
300 298 297 296 294 288 284 281 278 277 275 273 271 270 268 263 260 269 268 266 267 269 266 265 261 261 265 267 266 267 267 269 268 261 254 259 263 265 263 261 261 261 262
299 296 295 292 289 286 282 279 276 275 274 274 270 266 259 254 252 255 255 254 261 266 271 275 271 269 270 273 275 276 283 287 286 280 268 263 263 261 260 258 258 259 256
304 302 300 297 293 289 286 283 279 276 272 270 266 258 254 252 250 251 251 249 254 261 269 272 276 279 281 283 283 289 294 296 295 297 297 286 283 276 269 263 259 257 255
Height
1450 1444 1438 1431 1424 1418 1412 1408 1407 1407 1408 1411 1415 1420 1423 1424 1424 1423 1423 1423 1424 1426 1428 1428 1430 1431 1432 1434 1435 1437 1439 1441 1442 1445 1447 1450 1451 1452 1452 1454 1455 1456 1456
1445 1439 1432 1425 1418 1411 1406 1403 1401 1400 1401 1404 1407 1412 1416 1417 1418 1417 1417 1417 1418 1420 1421 1422 1423 1425 1426 1427 1429 1431 1433 1435 1437 1438 1441 1444 1446 1446 1447 1449 1450 1451 1452
1441 1433 1426 1420 1413 1408 1403 1399 1397 1396 1396 1398 1401 1404 1408 1411 1412 1411 1411 1413 1414 1415 1416 1418 1419 1420 1420 1422 1423 1425 1427 1429 1430 1432 1435 1438 1440 1440 1441 1443 1445 1446 1447
1438 1431 1424 1418 1412 1407 1402 1398 1396 1394 1394 1395 1397 1399 1402 1404 1406 1406 1408 1409 1410 1411 1413 1415 1415 1416 1416 1417 1419 1420 1422 1423 1425 1427 1429 1431 1433 1434 1435 1437 1439 1441 1443
1437 1431 1425 1419 1413 1408 1403 1399 1397 1395 1395 1396 1397 1398 1399 1400 1401 1403 1405 1406 1406 1408 1410 1411 1412 1412 1413 1414 1415 1416 1417 1418 1420 1422 1423 1425 1427 1428 1429 1430 1433 1434 1437
1439 1432 1427 1421 1416 1412 1407 1403 1400 1398 1398 1398 1399 1399 1399 1399 1400 1401 1403 1404 1404 1405 1406 1408 1409 1410 1410 1411 1412 1413 1414 1415 1416 1417 1418 1419 1420 1422 1423 1425 1426 1428 1430
1441 1435 1430 1425 1420 1416 1412 1409 1406 1404 1403 1402 1401 1401 1402 1401 1400 1401 1402 1403 1403 1404 1405 1407 1408 1408 1409 1410 1410 1411 1411 1412 1413 1413 1414 1414 1415 1417 1419 1420 1421 1424 1425
1442 1437 1432 1428 1424 1420 1416 1414 1412 1409 1407 1406 1405 1405 1404 1403 1401 1401 1402 1402 1403 1403 1404 1405 1406 1406 1408 1408 1409 1409 1410 1410 1409 1410 1411 1411 1412 1414 1415 1417 1418 1419 1420
1443 1439 1435 1430 1427 1423 1420 1417 1415 1413 1411 1410 1409 1407 1406 1403 1402 1401 1402 1402 1402 1403 1403 1403 1404 1405 1405 1405 1406 1406 1407 1407 1407 1407 1407 1408 1409 1410 1411 1413 1414 1415 1415
1445 1441 1437 1433 1429 1426 1423 1420 1417 1415 1413 1411 1409 1407 1405 1404 1403 1402 1402 1401 1402 1403 1403 1403 1403 1404 1403 1402 1403 1403 1403 1404 1404 1404 1405 1406 1407 1408 1409 1409 1410 1411 1411
1448 1443 1439 1434 1430 1427 1423 1420 1417 1415 1412 1410 1408 1407 1406 1405 1404 1403 1402 1402 1402 1403 1404 1403 1402 1402 1402 1401 1401 1401 1402 1402 1402 1403 1404 1405 1405 1405 1406 1407 1408 1408 1408
1449 1444 1440 1435 1432 1428 1424 1421 1418 1415 1412 1411 1409 1408 1407 1406 1405 1404 1403 1403 1403 1403 1403 1403 1402 1401 1401 1401 1401 1401 1401 1401 1401 1402 1402 1402 1402 1403 1403 1404 1404 1405 1404
1448 1445 1440 1436 1432 1429 1425 1422 1418 1416 1413 1411 1409 1408 1407 1406 1406 1405 1404 1404 1403 1403 1402 1402 1401 1401 1400 1400 1400 1400 1399 1399 1399 1400 1400 1399 1399 1399 1399 1399 1400 1400 1400
1448 1444 1440 1436 1432 1428 1425 1423 1419 1416 1413 1411 1409 1407 1406 1406 1405 1404 1403 1402 1402 1401 1401 1400 1400 1400 1400 1400 1399 1398 1397 1397 1397 1397 1397 1396 1396 1395 1395 1394 1394 1393 1393
1447 1443 1439 1435 1431 1428 1424 1422 1420 1417 1415 1412 1409 1407 1406 1404 1404 1403 1402 1400 1400 1400 1399 1399 1399 1398 1398 1397 1396 1396 1395 1394 1394 1394 1394 1393 1392 1391 1390 1389 1388 1387 1387
1447 1442 1438 1434 1431 1427 1424 1420 1418 1417 1414 1411 1409 1407 1405 1403 1402 1400 1399 1398 1397 1397 1397 1396 1396 1396 1395 1394 1393 1392 1392 1391 1391 1391 1390 1389 1387 1386 1385 1384 1383 1382 1382
1447 1443 1439 1435 1431 1427 1424 1420 1417 1414 1412 1410 1408 1406 1404 1401 1399 1397 1396 1395 1394 1393 1393 1393 1393 1393 1392 1392 1391 1389 1389 1389 1388 1387 1386 1385 1384 1382 1381 1379 1378 1377 1377
1447 1443 1439 1435 1431 1428 1424 1421 1418 1414 1411 1408 1406 1404 1402 1400 1397 1395 1394 1392 1391 1391 1391 1390 1390 1389 1389 1388 1388 1387 1386 1385 1384 1383 1382 1381 1379 1378 1376 1375 1373 1372 1372
1447 1444 1440 1435 1431 1428 1424 1421 1418 1415 1411 1408 1405 1402 1400 1397 1395 1393 1391 1390 1389 1388 1388 1387 1386 1386 1385 1385 1384 1383 1382 1381 1380 1379 1378 1377 1375 1373 1372 1370 1369 1367 1367
1447 1444 1440 1435 1430 1427 1423 1420 1417 1413 1410 1407 1404 1401 1398 1395 1392 1390 1389 1388 1387 1386 1385 1384 1383 1382 1381 1381 1380 1379 1378 1377 1376 1375 1373 1372 1370 1369 1367 1365 1364 1362 1361
1446 1442 1438 1433 1429 1425 1421 1418 1415 1411 1408 1405 1402 1399 1397 1394 1391 1389 1387 1385 1384 1382 1380 1379 1378 1377 1377 1376 1375 1374 1373 1372 1371 1370 1368 1367 1365 1363 1362 1360 1358 1357 1356
1445 1440 1435 1430 1426 1421 1418 1415 1412 1409 1405 1402 1399 1397 1395 1392 1389 1386 1384 1382 1380 1378 1376 1374 1373 1372 1371 1370 1369 1368 1368 1366 1365 1364 1363 1361 1360 1358 1356 1354 1353 1352 1350
1442 1437 1431 1426 1422 1418 1414 1410 1407 1404 1401 1398 1396 1393 1391 1389 1386 1384 1381 1379 1376 1374 1372 1370 1368 1367 1366 1365 1364 1363 1362 1361 1360 1359 1357 1355 1353 1351 1349 1348 1347 1345 1344
1439 1433 1427 1421 1416 1412 1408 1404 1401 1398 1395 1392 1390 1388 1386 1384 1382 1380 1378 1376 1373 1371 1369 1367 1365 1363 1362 1361 1360 1359 1358 1356 1355 1352 1350 1348 1345 1343 1342 1340 1339 1337 1335
1434 1427 1421 1415 1410 1405 1400 1396 1393 1390 1387 1385 1383 1381 1380 1379 1377 1376 1374 1372 1370 1367 1365 1363 1361 1360 1359 1358 1356 1355 1353 1351 1350 1347 1344 1341 1338 1335 1333 1331 1330 1328 1327
1428 1421 1414 1408 1402 1396 1391 1387 1383 1379 1377 1375 1373 1372 1372 1371 1371 1371 1370 1368 1366 1364 1362 1360 1358 1357 1356 1354 1353 1351 1349 1346 1344 1341 1338 1334 1331 1328 1326 1324 1322 1320 1319